When you browse on this site, cookies collect data to enhance your experience and personalize the content and advertising you see.
Visit our Privacy Policy to learn more. By continuing to use the site, you agree to this use of cookies and data.
  • In Hungary
  • List of Countries
  • For 7 days
  • Water Temperature
  • Satellite Maps
  • Weather Map
  • News
  • Weather Widgets
  • user-avatar
    Login

    Hourly Weather Nugush

    Today, 18 November, Sunday

    Time Temperature Precipitation Wind Pressure Humidity
    00:00 -2°C° 0 mm 1 mps 747 mmHg 71%
    01:00 -4°C° 0 mm 2 mps 747 mmHg 72%
    02:00 -5°C° 0 mm 2 mps 747 mmHg 72%
    03:00 -5°C° 0 mm 2 mps 747 mmHg 72%
    04:00 -3°C° 0 mm 1 mps 746 mmHg 73%
    05:00 -6°C° 0 mm 2 mps 746 mmHg 72%
    06:00 -6°C° 0 mm 2 mps 746 mmHg 72%
    07:00 -6°C° 0 mm 2 mps 746 mmHg 71%
    08:00 -5°C° 0 mm 2 mps 746 mmHg 68%
    09:00 -4°C° 0 mm 2 mps 746 mmHg 65%
    10:00 -3°C° 0 mm 2 mps 746 mmHg 61%
    11:00 -3°C° 0 mm 2 mps 746 mmHg 60%
    12:00 -2°C° 0 mm 2 mps 746 mmHg 58%
    13:00 -2°C° 0 mm 2 mps 746 mmHg 56%
    14:00 -2°C° 0 mm 2 mps 746 mmHg 58%
    15:00 -3°C° 0 mm 2 mps 747 mmHg 61%
    16:00 -3°C° 0 mm 2 mps 747 mmHg 65%
    17:00 -3°C° 0 mm 2 mps 747 mmHg 65%
    18:00 -3°C° 0 mm 2 mps 747 mmHg 65%
    19:00 -4°C° 0 mm 2 mps 747 mmHg 65%
    20:00 -2°C° 0 mm 1 mps 747 mmHg 66%
    21:00 -2°C° 0 mm 1 mps 747 mmHg 67%
    22:00 -2°C° 0 mm 1 mps 747 mmHg 67%
    23:00 -2°C° 0 mm 1 mps 748 mmHg 68%

    Tomorrow, 19 November, Monday

    Time Temperature Precipitation Wind Pressure Humidity
    00:00 -3°C° 0 mm 1 mps 748 mmHg 69%
    01:00 -3°C° 0 mm 1 mps 748 mmHg 70%
    02:00 -3°C° 0 mm 1 mps 748 mmHg 70%
    03:00 -3°C° 0 mm 1 mps 748 mmHg 71%
    04:00 -3°C° 0 mm 1 mps 748 mmHg 72%
    05:00 -3°C° 0 mm 1 mps 748 mmHg 72%
    06:00 -4°C° 0 mm 1 mps 748 mmHg 73%
    07:00 -4°C° 0 mm 1 mps 748 mmHg 73%
    08:00 -3°C° 0 mm 1 mps 748 mmHg 71%
    09:00 -2°C° 0 mm 1 mps 749 mmHg 68%
    10:00 -2°C° 0 mm 1 mps 749 mmHg 65%
    11:00 -1°C° 0 mm 1 mps 749 mmHg 62%
    12:00 -1°C° 0 mm 1 mps 749 mmHg 59%
    13:00 0°C° 0 mm 1 mps 749 mmHg 55%
    14:00 -1°C° 0 mm 1 mps 749 mmHg 58%
    15:00 -1°C° 0 mm 1 mps 749 mmHg 61%
    16:00 -2°C° 0 mm 1 mps 749 mmHg 64%
    17:00 -3°C° 0 mm 1 mps 749 mmHg 64%
    18:00 -3°C° 0 mm 1 mps 749 mmHg 64%
    19:00 -3°C° 0 mm 1 mps 749 mmHg 64%
    20:00 -4°C° 0 mm 1 mps 749 mmHg 63%
    21:00 -4°C° 0 mm 1 mps 749 mmHg 63%
    22:00 -4°C° 0 mm 1 mps 748 mmHg 62%
    23:00 -4°C° 0 mm 1 mps 748 mmHg 62%

    Day after tomorrow, 20 November, Tuesday

    Time Temperature Precipitation Wind Pressure Humidity
    00:00 -4°C° 0 mm 1 mps 748 mmHg 62%
    01:00 -4°C° 0 mm 1 mps 748 mmHg 62%
    02:00 -6°C° 0 mm 1 mps 748 mmHg 62%
    03:00 -6°C° 0 mm 1 mps 748 mmHg 62%
    04:00 -6°C° 0 mm 1 mps 748 mmHg 61%
    05:00 -6°C° 0 mm 1 mps 747 mmHg 61%
    06:00 -6°C° 0 mm 1 mps 747 mmHg 62%
    07:00 -6°C° 0 mm 1 mps 747 mmHg 62%
    08:00 -4°C° 0 mm 1 mps 747 mmHg 61%
    09:00 -4°C° 0 mm 1 mps 747 mmHg 60%
    10:00 -3°C° 0 mm 1 mps 747 mmHg 59%
    11:00 -5°C° 0 mm 2 mps 747 mmHg 60%
    12:00 -4°C° 0 mm 2 mps 746 mmHg 61%
    13:00 -4°C° 0 mm 2 mps 746 mmHg 61%
    14:00 -4°C° 0 mm 2 mps 746 mmHg 67%
    15:00 -4°C° 0 mm 2 mps 746 mmHg 72%
    16:00 -5°C° 0 mm 2 mps 746 mmHg 78%
    17:00 -3°C° 0 mm 1 mps 745 mmHg 81%
    18:00 -3°C° 0 mm 1 mps 745 mmHg 83%
    19:00 -3°C° 0 mm 1 mps 745 mmHg 86%
    20:00 -3°C° 0 mm 1 mps 745 mmHg 88%
    21:00 -3°C° 0 mm 1 mps 745 mmHg 89%
    22:00 -3°C° 0 mm 1 mps 744 mmHg 91%
    23:00 -5°C° 0 mm 2 mps 744 mmHg 92%

    21 November, Wednesday

    Time Temperature Precipitation Wind Pressure Humidity
    00:00 -5°C° 0 mm 2 mps 744 mmHg 93%
    01:00 -5°C° 0 mm 2 mps 744 mmHg 93%
    02:00 -5°C° 0.1 mm 2 mps 743 mmHg 94%
    03:00 -5°C° 0.1 mm 2 mps 743 mmHg 94%
    04:00 -5°C° 0.1 mm 2 mps 743 mmHg 95%
    05:00 -5°C° 0.1 mm 2 mps 743 mmHg 95%
    06:00 -4°C° 0.1 mm 2 mps 742 mmHg 95%
    07:00 -4°C° 0.1 mm 2 mps 742 mmHg 95%
    08:00 -5°C° 0.1 mm 3 mps 741 mmHg 93%
    09:00 -5°C° 0.1 mm 3 mps 741 mmHg 92%
    10:00 -4°C° 0.1 mm 3 mps 741 mmHg 90%
    11:00 -4°C° 0.1 mm 4 mps 740 mmHg 88%
    12:00 -4°C° 0.1 mm 4 mps 740 mmHg 86%
    13:00 -4°C° 0.1 mm 4 mps 739 mmHg 83%
    14:00 -5°C° 0.1 mm 5 mps 739 mmHg 85%
    15:00 -5°C° 0.1 mm 5 mps 738 mmHg 86%
    16:00 -5°C° 0.1 mm 5 mps 738 mmHg 87%
    17:00 -6°C° 0.4 mm 5 mps 737 mmHg 89%
    18:00 -6°C° 0.4 mm 5 mps 737 mmHg 90%
    19:00 -6°C° 0.4 mm 5 mps 736 mmHg 91%
    20:00 -6°C° 0.2 mm 5 mps 736 mmHg 91%
    21:00 -5°C° 0.2 mm 4 mps 736 mmHg 91%
    22:00 -5°C° 0.2 mm 4 mps 735 mmHg 91%
    23:00 -5°C° 0.1 mm 4 mps 735 mmHg 91%

    22 November, Thursday

    Time Temperature Precipitation Wind Pressure Humidity
    00:00 -7°C° 0.1 mm 4 mps 735 mmHg 92%
    01:00 -6°C° 0.1 mm 3 mps 735 mmHg 92%
    02:00 -6°C° 0.1 mm 3 mps 735 mmHg 91%
    03:00 -6°C° 0.1 mm 3 mps 735 mmHg 91%
    04:00 -6°C° 0.1 mm 3 mps 735 mmHg 90%
    05:00 -7°C° 0 mm 3 mps 735 mmHg 91%
    06:00 -8°C° 0 mm 3 mps 734 mmHg 91%
    07:00 -8°C° 0 mm 2 mps 734 mmHg 91%
    08:00 -7°C° 0 mm 2 mps 734 mmHg 90%
    09:00 -7°C° 0 mm 2 mps 735 mmHg 88%
    10:00 -7°C° 0 mm 2 mps 735 mmHg 86%
    11:00 -8°C° 0 mm 3 mps 735 mmHg 84%
    12:00 -8°C° 0 mm 3 mps 734 mmHg 82%
    13:00 -7°C° 0 mm 3 mps 734 mmHg 80%
    14:00 -8°C° 0 mm 3 mps 734 mmHg 82%
    15:00 -8°C° 0 mm 3 mps 734 mmHg 85%
    16:00 -9°C° 0 mm 3 mps 733 mmHg 88%
    17:00 -9°C° 0 mm 3 mps 733 mmHg 88%
    18:00 -10°C° 0 mm 4 mps 733 mmHg 89%
    19:00 -10°C° 0 mm 4 mps 732 mmHg 90%
    20:00 -10°C° 0.2 mm 4 mps 732 mmHg 90%
    21:00 -9°C° 0.2 mm 4 mps 732 mmHg 91%
    22:00 -9°C° 0.2 mm 4 mps 732 mmHg 91%
    23:00 -9°C° 0.3 mm 4 mps 731 mmHg 92%

    23 November, Friday

    Time Temperature Precipitation Wind Pressure Humidity
    00:00 -9°C° 0.3 mm 4 mps 731 mmHg 92%
    01:00 -9°C° 0.3 mm 4 mps 731 mmHg 93%
    02:00 -9°C° 0.4 mm 4 mps 730 mmHg 93%
    03:00 -9°C° 0.4 mm 4 mps 730 mmHg 93%
    04:00 -9°C° 0.4 mm 4 mps 730 mmHg 93%
    05:00 -8°C° 0.5 mm 3 mps 730 mmHg 94%
    06:00 -8°C° 0.5 mm 3 mps 730 mmHg 94%
    07:00 -7°C° 0.5 mm 2 mps 730 mmHg 95%
    08:00 -8°C° 0.3 mm 3 mps 731 mmHg 93%
    09:00 -8°C° 0.3 mm 3 mps 731 mmHg 91%
    10:00 -8°C° 0.3 mm 3 mps 732 mmHg 90%
    11:00 -9°C° 0.1 mm 4 mps 733 mmHg 85%
    12:00 -10°C° 0.1 mm 5 mps 733 mmHg 81%
    13:00 -10°C° 0.1 mm 6 mps 734 mmHg 76%
    14:00 -11°C° 0 mm 5 mps 735 mmHg 78%
    15:00 -12°C° 0 mm 5 mps 736 mmHg 80%
    16:00 -14°C° 0 mm 4 mps 737 mmHg 81%
    17:00 -14°C° 0 mm 4 mps 738 mmHg 85%
    18:00 -14°C° 0 mm 3 mps 739 mmHg 89%
    19:00 -14°C° 0 mm 3 mps 739 mmHg 92%
    20:00 -14°C° 0 mm 3 mps 740 mmHg 92%
    21:00 -14°C° 0 mm 3 mps 740 mmHg 92%
    22:00 -14°C° 0 mm 3 mps 741 mmHg 92%
    23:00 -15°C° 0 mm 3 mps 741 mmHg 92%
    Show more